Wind_Speed
12 12 12 13 13 12 12 13 13 13 13 13 13 12 12 11 12 12 12 11 11 10 10 10 10 11 11 11 11 12 13 13 13 13 13 13 13 13 13 14 15 16 16
11 12 12 12 12 12 12 13 13 14 13 13 13 13 13 13 12 13 13 12 11 11 11 11 11 11 11 12 12 13 13 14 14 14 14 14 14 14 14 14 15 16 16
12 12 12 12 12 12 12 13 13 14 14 14 13 13 13 13 13 13 12 12 12 12 12 12 12 12 12 12 12 13 13 13 14 14 14 14 15 15 15 16 15 16 17
13 12 12 13 13 12 12 12 13 13 13 14 13 13 14 14 14 14 13 12 12 12 13 13 13 13 13 13 13 14 14 14 14 15 16 16 16 16 16 17 16 16 17
14 13 13 13 13 13 13 13 13 14 14 14 14 14 14 14 14 14 14 14 13 13 14 13 13 13 13 13 14 14 14 14 15 15 16 16 16 17 18 18 18 18 18
14 14 14 14 14 14 14 14 14 14 15 15 15 15 14 15 15 15 15 14 14 14 14 13 13 13 13 14 14 14 15 15 14 15 15 16 16 17 18 18 18 19 18
15 15 15 14 14 15 15 15 15 15 15 15 16 16 16 15 16 15 15 15 15 15 14 14 14 14 14 14 15 15 16 16 16 16 16 16 17 18 18 19 19 20 20
15 15 15 15 15 15 15 15 15 16 16 16 17 17 17 16 16 16 16 15 15 15 14 15 15 15 15 16 16 16 16 16 17 16 16 16 16 18 19 20 20 20 20
15 15 16 16 16 16 15 15 16 17 17 17 17 17 17 17 17 17 17 16 16 16 16 16 16 17 17 17 18 18 18 18 17 17 16 16 17 18 19 20 19 19 19
16 16 16 17 17 17 16 16 17 18 18 19 19 18 18 18 18 18 17 17 17 17 17 17 18 18 17 18 19 20 19 19 18 17 17 17 17 17 18 18 19 19 19
17 17 18 18 18 17 17 18 18 19 19 19 19 19 19 19 19 19 19 19 18 18 18 18 19 19 19 19 19 19 20 19 19 18 18 18 18 17 18 18 19 19 20
18 18 18 19 19 19 18 18 19 19 20 20 20 20 20 20 19 19 19 20 19 19 19 19 20 20 20 20 20 21 20 20 20 19 19 19 19 19 20 19 20 21 22
19 19 18 19 19 20 20 20 19 19 20 21 21 20 20 20 20 20 20 20 20 20 20 20 20 21 21 21 22 21 20 20 20 20 20 20 20 20 20 20 21 21 22
19 19 19 20 19 20 20 21 20 20 20 21 21 21 20 20 21 21 21 21 20 20 21 20 20 21 21 20 21 21 20 20 19 19 20 20 20 21 21 21 21 22 22
19 19 20 19 20 20 21 21 21 21 20 21 21 21 21 21 21 21 21 21 21 21 20 20 20 20 20 20 21 21 20 19 19 19 20 21 21 22 22 22 23 23 23
21 20 21 22 21 21 21 21 21 21 21 21 21 21 21 21 22 21 21 21 21 20 21 21 21 21 21 21 21 21 20 19 19 19 20 21 22 22 22 23 23 23 24
21 21 22 22 21 21 21 21 21 21 22 22 22 22 23 23 23 23 23 22 21 21 21 22 22 21 21 22 23 22 21 21 21 21 21 22 22 22 22 22 23 23 23
22 22 22 22 22 21 21 21 22 22 22 23 23 23 23 24 23 23 23 23 23 23 22 23 23 23 23 24 24 23 22 22 22 22 22 22 23 23 22 22 22 22 22
22 22 22 22 22 22 22 22 22 22 22 23 23 24 24 24 24 24 25 24 24 24 24 24 24 25 25 25 25 24 23 23 24 24 24 24 24 24 23 22 22 22 22
22 23 23 23 22 22 23 23 23 23 23 24 25 25 25 25 25 25 26 25 25 24 25 25 25 25 26 26 25 25 25 25 25 25 25 25 25 24 24 23 24 24 25
22 23 23 23 23 23 24 24 25 25 25 25 26 26 26 26 26 26 26 25 24 25 25 25 25 25 26 26 26 25 25 25 25 25 25 25 24 24 25 25 25 26 26
24 23 24 24 24 24 25 25 26 26 26 27 27 27 27 27 27 27 26 26 26 25 26 26 26 26 26 26 25 25 25 25 25 25 25 25 25 25 25 25 25 25 25
25 24 25 25 25 25 26 27 28 28 28 28 27 27 27 28 27 27 26 26 26 25 26 26 26 25 25 25 25 25 25 25 25 25 25 25 26 25 26 25 25 25 25
26 25 26 26 26 26 27 28 28 27 27 27 27 27 27 27 27 27 26 27 27 26 26 26 26 26 25 25 26 26 26 26 26 26 26 26 25 25 26 26 26 27 26
27 27 27 27 27 27 28 28 28 28 27 27 27 27 27 27 27 27 27 26 26 27 27 27 27 27 27 27 27 27 26 26 26 26 26 26 26 26 26 26 26 26 26
27 27 28 28 28 28 28 28 28 28 27 27 26 27 27 27 28 28 28 27 27 27 28 28 29 29 28 28 28 28 27 27 27 26 26 26 26 26 26 25 25 25 25
Wind_Direction
344 343 341 338 337 336 338 339 340 340 341 342 342 341 337 332 329 330 329 326 318 314 312 309 307 305 303 298 292 285 284 283 279 275 271 270 270 268 266 267 266 266 267
344 343 341 338 335 334 334 336 337 339 339 339 338 338 336 333 331 330 327 323 320 316 311 309 308 304 299 297 297 295 289 287 283 278 275 274 274 271 269 269 269 268 267
341 341 342 339 337 336 334 335 336 336 337 337 336 335 333 331 332 333 331 327 320 316 312 308 305 302 298 296 296 295 289 288 286 281 277 274 272 271 270 269 272 274 270
340 339 339 339 338 337 337 338 337 337 337 337 336 335 334 333 334 332 330 328 324 319 314 310 307 304 302 298 294 293 290 288 287 282 279 278 274 272 271 273 275 275 271
338 339 337 336 334 334 333 335 335 335 335 334 332 332 332 332 331 330 329 326 323 320 317 313 311 305 301 300 297 296 296 292 288 283 279 278 276 274 272 273 273 273 273
329 333 333 331 330 330 329 330 331 331 331 331 329 329 330 329 328 329 329 326 324 320 317 317 314 311 305 300 299 301 301 299 294 288 282 279 274 272 273 271 272 274 274
326 328 331 330 329 328 328 327 329 329 327 327 326 325 327 328 328 329 328 325 323 321 319 319 316 312 307 303 300 302 301 300 297 292 287 282 275 272 273 272 272 273 274
322 326 330 328 327 327 326 326 325 326 325 323 322 322 323 323 325 325 324 324 324 321 317 317 314 313 310 307 304 303 304 303 302 299 293 286 280 276 275 275 275 274 274
321 323 326 326 326 325 324 323 324 323 323 323 323 322 321 320 320 320 319 319 320 319 316 314 313 310 308 307 306 303 302 301 302 302 297 289 284 281 279 276 275 277 276
318 319 322 323 323 322 321 321 322 322 321 322 321 319 318 318 318 316 315 316 317 317 315 313 312 310 307 306 306 302 301 299 298 298 297 296 291 285 281 278 277 277 277
314 317 319 319 319 317 317 318 318 318 320 320 319 317 317 318 318 317 315 313 314 314 314 311 311 311 308 305 306 305 304 300 297 296 293 293 293 292 287 281 278 277 277
310 313 315 316 316 315 314 315 317 317 319 318 317 317 317 317 317 317 316 315 314 312 311 311 311 312 311 307 306 306 304 300 298 296 294 291 291 291 290 285 282 279 277
308 309 310 312 313 314 314 316 316 317 318 318 316 316 316 316 315 315 315 314 313 313 313 313 313 313 313 312 308 308 303 301 299 297 294 291 291 292 291 288 285 283 280
306 307 308 308 312 315 316 317 315 316 318 317 316 315 315 315 315 314 313 313 312 312 313 314 315 315 315 314 314 313 309 303 301 299 295 293 293 291 290 289 287 284 281
301 303 307 308 313 314 315 316 316 317 317 318 316 315 315 315 314 313 312 311 311 311 312 312 314 314 314 313 314 313 311 305 302 300 297 295 294 293 292 291 287 284 282
298 299 304 306 308 311 314 315 314 314 314 315 315 314 314 312 313 312 311 310 311 311 311 311 311 312 311 311 312 311 312 310 305 302 301 298 295 295 293 291 290 286 283
297 301 303 304 305 308 311 312 314 315 314 314 315 315 313 312 312 312 310 309 308 308 308 308 309 309 309 310 311 311 310 308 306 303 301 299 298 295 293 291 290 287 284
296 299 301 302 307 309 310 312 314 315 315 313 313 313 313 312 312 312 311 309 307 306 305 306 308 308 309 309 309 310 307 306 304 304 302 300 298 296 293 289 289 288 286
297 300 302 303 307 309 309 310 311 312 313 313 312 311 311 310 310 308 308 308 306 305 305 305 307 308 308 308 307 306 305 304 303 303 302 301 297 296 295 291 289 289 288
295 299 301 302 304 306 306 307 308 309 310 312 312 310 311 311 309 308 307 307 306 307 307 307 307 307 307 307 306 305 303 302 302 302 302 301 300 297 295 292 290 289 289
293 296 298 301 303 303 303 305 307 308 308 309 310 310 310 310 310 308 306 306 307 308 307 307 307 307 307 306 305 303 302 301 301 302 302 302 301 299 298 294 292 290 290
290 294 296 299 300 300 301 302 304 305 307 308 308 308 308 309 310 309 307 306 306 307 308 308 308 307 306 304 302 302 303 302 301 301 302 302 301 300 299 297 294 293 292
287 291 294 297 298 299 299 300 301 303 304 305 306 307 308 307 308 310 309 309 307 306 308 307 307 307 307 306 305 304 303 302 302 301 300 300 300 300 299 299 296 294 293
287 290 292 295 297 299 300 300 300 301 302 304 305 306 307 308 308 308 308 308 307 307 307 307 307 307 308 308 308 306 304 302 301 301 299 300 300 300 299 297 297 295 293
286 288 290 292 296 298 299 299 300 300 301 303 304 305 305 306 307 308 307 307 307 307 308 308 307 308 307 307 307 307 305 304 303 302 301 301 300 299 298 298 298 298 296
283 285 288 290 293 296 298 298 299 299 299 300 301 303 304 305 306 307 307 308 307 307 307 307 306 306 305 305 306 306 305 304 304 302 300 300 301 301 300 300 299 299 297
Height
5898 5896 5895 5893 5892 5890 5889 5887 5886 5884 5882 5881 5879 5877 5876 5874 5872 5871 5869 5868 5866 5865 5865 5864 5863 5863 5862 5861 5861 5860 5860 5859 5859 5859 5860 5860 5861 5861 5861 5862 5862 5863 5864
5898 5896 5894 5893 5891 5890 5888 5886 5885 5883 5881 5880 5878 5876 5874 5873 5871 5869 5867 5866 5865 5864 5863 5862 5861 5860 5860 5859 5858 5857 5857 5856 5856 5856 5856 5857 5858 5857 5858 5858 5858 5859 5859
5897 5895 5894 5892 5890 5889 5887 5886 5884 5882 5880 5879 5877 5875 5873 5871 5870 5868 5866 5865 5864 5862 5861 5860 5859 5858 5857 5856 5855 5854 5854 5853 5853 5852 5853 5853 5853 5853 5854 5854 5854 5854 5855
5896 5895 5893 5891 5889 5888 5886 5885 5883 5881 5879 5877 5876 5874 5872 5870 5868 5867 5865 5863 5862 5861 5859 5858 5857 5856 5855 5854 5853 5852 5851 5850 5849 5848 5848 5849 5849 5849 5850 5850 5850 5851 5851
5896 5894 5892 5890 5888 5887 5885 5884 5882 5880 5878 5876 5874 5873 5871 5869 5867 5865 5863 5862 5860 5859 5857 5855 5854 5853 5852 5851 5850 5849 5848 5846 5845 5844 5844 5844 5844 5845 5845 5846 5846 5846 5846
5894 5892 5891 5889 5887 5885 5884 5882 5880 5879 5877 5875 5873 5871 5869 5867 5865 5863 5862 5860 5858 5856 5855 5853 5852 5850 5849 5848 5847 5846 5844 5843 5842 5841 5840 5840 5840 5840 5840 5841 5841 5841 5841
5893 5891 5889 5888 5886 5884 5882 5881 5879 5877 5875 5873 5871 5869 5868 5866 5864 5862 5860 5858 5856 5854 5852 5851 5849 5848 5846 5845 5844 5842 5841 5839 5838 5837 5836 5835 5835 5836 5836 5836 5836 5836 5836
5891 5890 5888 5886 5884 5882 5881 5879 5877 5875 5873 5871 5869 5867 5865 5863 5861 5859 5857 5855 5853 5851 5850 5848 5847 5845 5844 5842 5840 5839 5837 5836 5834 5833 5832 5831 5831 5831 5831 5831 5831 5831 5831
5889 5888 5886 5884 5882 5880 5879 5877 5875 5873 5871 5868 5866 5864 5862 5860 5859 5857 5854 5852 5851 5849 5847 5845 5844 5842 5840 5839 5837 5835 5833 5832 5830 5829 5828 5827 5827 5826 5826 5825 5826 5826 5826
5888 5886 5884 5882 5880 5878 5876 5874 5872 5870 5868 5865 5863 5861 5859 5857 5855 5853 5851 5849 5848 5846 5844 5842 5840 5838 5837 5835 5833 5831 5829 5828 5826 5825 5824 5823 5822 5821 5820 5820 5820 5820 5821
5885 5884 5882 5880 5878 5875 5874 5871 5869 5867 5864 5862 5860 5858 5856 5854 5852 5850 5848 5846 5844 5842 5840 5838 5836 5834 5832 5830 5829 5827 5825 5823 5822 5820 5819 5818 5817 5816 5815 5815 5815 5814 5814
5883 5881 5879 5877 5875 5873 5870 5868 5865 5864 5862 5860 5857 5855 5853 5851 5849 5847 5845 5842 5840 5838 5836 5834 5832 5830 5828 5826 5824 5822 5820 5818 5816 5815 5814 5813 5812 5811 5810 5809 5809 5808 5808
5880 5878 5876 5873 5872 5870 5868 5864 5862 5861 5859 5857 5854 5851 5849 5847 5845 5843 5841 5839 5837 5835 5832 5830 5828 5826 5823 5821 5819 5817 5814 5812 5811 5809 5809 5808 5807 5806 5805 5804 5803 5802 5802
5877 5875 5873 5870 5869 5867 5865 5862 5859 5857 5855 5853 5850 5848 5846 5844 5841 5839 5837 5835 5833 5831 5828 5826 5824 5821 5819 5817 5814 5812 5809 5807 5806 5805 5803 5802 5801 5800 5799 5798 5797 5796 5796
5874 5872 5870 5867 5865 5864 5862 5859 5856 5854 5851 5849 5847 5844 5842 5839 5837 5835 5833 5830 5828 5826 5824 5822 5819 5817 5815 5812 5810 5807 5805 5803 5801 5800 5798 5797 5796 5795 5793 5792 5791 5790 5789
5869 5868 5867 5865 5863 5861 5858 5856 5853 5851 5848 5846 5843 5841 5838 5835 5833 5831 5828 5826 5824 5822 5819 5817 5815 5813 5810 5808 5805 5803 5801 5798 5797 5795 5793 5792 5790 5789 5787 5786 5784 5783 5782
5866 5864 5863 5861 5859 5857 5855 5852 5850 5847 5845 5842 5840 5837 5834 5832 5829 5826 5824 5821 5819 5817 5815 5813 5810 5808 5806 5803 5801 5798 5796 5794 5792 5790 5788 5786 5784 5783 5781 5780 5778 5777 5775
5862 5861 5859 5857 5855 5853 5850 5848 5846 5843 5841 5838 5836 5833 5830 5827 5825 5822 5819 5817 5814 5812 5810 5808 5805 5803 5801 5798 5795 5793 5791 5788 5786 5784 5782 5780 5778 5776 5774 5773 5772 5770 5769
5857 5856 5854 5852 5851 5848 5846 5844 5841 5839 5836 5834 5831 5828 5825 5823 5820 5817 5814 5812 5809 5807 5805 5803 5800 5798 5796 5793 5790 5788 5785 5783 5781 5779 5776 5774 5772 5770 5768 5766 5765 5764 5762
5853 5851 5849 5848 5846 5844 5841 5839 5837 5834 5832 5829 5826 5823 5820 5818 5815 5812 5809 5806 5804 5801 5799 5797 5794 5792 5790 5787 5784 5781 5779 5777 5774 5772 5770 5768 5765 5763 5761 5759 5758 5757 5755
5847 5846 5844 5843 5841 5839 5837 5834 5832 5829 5827 5824 5821 5818 5815 5812 5810 5806 5803 5801 5798 5796 5793 5791 5788 5786 5783 5781 5778 5775 5772 5770 5768 5766 5763 5761 5759 5756 5754 5752 5750 5749 5747
5841 5841 5839 5838 5836 5834 5832 5829 5827 5824 5821 5819 5816 5813 5810 5807 5804 5801 5798 5795 5792 5790 5787 5785 5782 5779 5777 5774 5771 5769 5766 5764 5761 5759 5757 5754 5752 5750 5747 5745 5743 5741 5739
5835 5834 5833 5832 5830 5828 5826 5824 5821 5818 5816 5813 5810 5807 5804 5801 5798 5795 5792 5789 5786 5784 5781 5778 5776 5773 5770 5768 5765 5762 5760 5757 5755 5752 5750 5748 5745 5743 5740 5738 5736 5733 5731
5828 5827 5827 5825 5824 5822 5819 5817 5814 5812 5809 5807 5804 5801 5799 5796 5793 5789 5786 5784 5781 5778 5775 5772 5769 5766 5764 5761 5758 5755 5753 5750 5748 5745 5743 5741 5738 5735 5733 5731 5728 5726 5724
5822 5821 5820 5819 5817 5815 5812 5810 5808 5805 5802 5800 5798 5795 5793 5790 5787 5783 5780 5778 5775 5771 5768 5765 5763 5760 5757 5754 5751 5748 5745 5743 5741 5738 5735 5733 5731 5728 5725 5723 5721 5718 5716
5815 5814 5813 5811 5809 5807 5806 5803 5801 5798 5796 5794 5791 5789 5786 5783 5781 5778 5775 5772 5769 5765 5762 5759 5756 5753 5750 5747 5744 5741 5738 5735 5733 5731 5728 5726 5723 5721 5718 5715 5713 5711 5708